Regional Weather Roundup
Issued by NWS Jackson, KY

Home | Current Version | Previous Version | Text Only | Print | Product List | Glossary Off
Versions: 1 2 3 4 5 6 7 8 9 10 11 12 13 14 15 16 17 18 19 20 21 22 23 24 25 26 27 28

000
ASUS43 KJKL 092110
RWRJKL

EAST KENTUCKY HOURLY WEATHER ROUNDUP
NATIONAL WEATHER SERVICE JACKSON KY
400 PM EST FRI DEC 09 2016

NOTE: "FAIR" INDICATES FEW OR NO CLOUDS BELOW 12,000 FEET WITH
NO SIGNIFICANT WEATHER AND/OR OBSTRUCTIONS TO VISIBILITY.

* THESE REPORTS ARE NOT UNDER NWS QUALITY CONTROL AND MAY NOT
  REPORT WEATHER SUCH AS PRECIPITATION AND FOG.

KYZ079-080-083-085-087-088-110-112-115-119-120-092200
...EASTERN KENTUCKY...

CITY           SKY/WX    TMP DP  RH WIND       PRES   REMARKS
JACKSON        MOSUNNY   27  13  55 VRB3      30.48S
LONDON         MOSUNNY   28  13  53 W5        30.50R WCI  23
SOMERSET*      MOSUNNY   28  14  54 W5        30.55S WCI  23
MONTICELLO*    SUNNY     30  17  58 W6        30.55R WCI  24
MIDDLESBORO*   SUNNY     31  15  51 CALM      30.50R
HARLAN APT*    PTCLDY    30  12  47 CALM      30.46R
PIKE CO APT*   CLOUDY    24  15  67 N3        30.47F
BIG SANDY APT* CLOUDY    25  14  64 NW3       30.49F
MOREHEAD APT*  CLOUDY    25  10  54 VRB6      30.54R WCI  18
ASHLAND*       CLOUDY    27  12  54 W7        30.52S WCI  19
$$

KYZ035-036-041-042-044-050-067-078-099-092200
...CENTRAL KENTUCKY...

CITY           SKY/WX    TMP DP  RH WIND       PRES   REMARKS
MT STERLING*   CLOUDY    25  14  63 NW5       30.54R WCI  19
FLEMING/MASON* CLOUDY    23  13  64 W7        30.54R WCI  15
DANVILLE*      PTSUNNY   27  14  59 N6        30.54R WCI  20
LEXINGTON      CLOUDY    24  12  60 SW6       30.53R WCI  17
FRANKFORT      CLOUDY    25  12  58 W3        30.54R
LOUISVILLE     CLOUDY    28  12  51 W8        30.57R WCI  20
LEBANON*       CLOUDY    28  14  54 SW5       30.55R WCI  23
GLASGOW*       SUNNY     32  16  52 W7        30.54R WCI  26
BOWLING GREEN  SUNNY     34  15  46 CALM      30.56S
$$

KYZ091>093-OHZ055-061-077-WVZ005-015-034-035-042-092200
...SOUTHERN OHIO/WEST VIRGINIA...

CITY           SKY/WX    TMP DP  RH WIND       PRES   REMARKS
COVINGTON      FLURRIES  25  13  60 W9        30.52R WCI  15
COLUMBUS       FLURRIES  27  21  78 W13       30.46R WCI  16
DAYTON         LGT SNOW  25  17  72 W12       30.48R WCI  14
WILMINGTON     PTSUNNY   25  15  66 SW12      30.47S WCI  14
HUNTINGTON     CLOUDY    26  13  57 W5        30.51S WCI  20
CHARLESTON     FLURRIES  26  15  63 W7        30.49R WCI  18
PINEVILLE*       N/A     26  11  54 MISG      30.49R
BECKLEY        CLOUDY    21  11  65 NW9       30.37S WCI  11
BLUEFIELD      CLOUDY    20   8  60 W10       30.36R WCI   9
LOGAN CO APT*  CLOUDY    25  14  63 CALM      30.44S
$$

VAZ002-007-008-TNZ017-027-036-066-071-092200
...SOUTHWEST VIRGINIA/EAST TENNESSEE...

CITY           SKY/WX    TMP DP  RH WIND       PRES   REMARKS
WISE*          SUNNY     25  14  63 N6        30.39S WCI  18
ABINGDON*      SUNNY     30  13  49 N5        30.41R WCI  25
BRISTOL        MOSUNNY   32  14  47 W7        30.44R WCI  26
MORRISTOWN*    CLEAR     32  14  47 VRB3      30.46R
SEVIERVILLE*   CLEAR     32  12  43 N3        30.48R
KNOXVILLE      SUNNY     35  14  42 NE5       30.48S WCI  31
OAK RIDGE      SUNNY     36  14  40 E5        30.49F WCI  32
CROSSVILLE     SUNNY     30  14  51 NW9       30.45R WCI  22
NASHVILLE      SUNNY     37  14  38 VRB6      30.55S WCI  32
$$

...KEY TO REMARKS...
VSB - VISIBILITY IN MILES
WCI - WIND CHILL INDEX
HX  - HEAT INDEX

$$




USA.gov is the U.S. government's official web portal to all federal, state and local government web resources and services.